Location: Gajan
(43.0218°N, 1.1244°E)
Time: 07:47:08
(UTC+00:00)

ARIANE 5 R/B - Pass Details

Date: 22 April 2021
Orbit: 620 x 656 km, 98.1° (Epoch: 02 May)

Event Time Altitude Azimuth Distance (km) Brightness Sun altitude
Exits shadow 20:04:04 15° 85° (E) 1,711 4.4 -13.7°
Maximum altitude 20:05:24 17° 64° (ENE) 1,608 4.4 -13.9°
Drops below altitude 10° 20:08:12 10° 24° (NNE) 2,016 5.3 -14.3°
Sets 20:11:02 0° 4° (N) 2,923 6.4 -14.7°
